Theta_e
321 319 318 317 319 321 324 326 327 326 325 325 325 324 324 324 325 326 325 325 325 325 324 324 323 322 321 320 318 318 316 315 315 315 314 314 313 312 313 320 327 331 332 331 328 324 325 333 332 327 326 321 316 314 313 313 313 313 313 313 312 313 313 314 315 315 316 316 316 318 319 320 320 321 321 322 322 324 325 326 326 326 326 327 327
319 319 318 316 319 321 323 325 325 325 325 324 324 324 324 323 324 324 324 324 323 323 322 321 319 318 316 314 312 312 311 311 311 310 311 311 311 315 322 330 333 334 335 335 334 330 322 328 331 326 323 316 313 313 312 313 313 313 313 313 313 314 315 317 317 317 317 317 318 321 323 323 322 322 322 322 324 325 326 327 327 327 328 328 328
319 319 318 317 319 320 322 323 324 324 324 324 323 323 323 323 323 323 322 321 321 321 320 318 315 314 312 310 310 310 311 311 311 310 310 309 311 319 328 333 334 335 336 335 336 333 322 323 329 325 320 313 312 313 313 313 312 313 313 314 315 317 320 322 321 320 321 321 322 325 326 326 324 323 323 324 325 326 326 327 327 328 329 329 329
319 319 318 317 318 320 321 322 322 323 324 323 323 322 322 322 322 321 321 320 320 319 316 315 313 312 310 309 310 311 312 311 311 310 311 314 312 317 329 333 334 335 336 335 334 330 320 320 326 323 317 312 313 313 313 313 313 315 316 317 319 321 324 325 324 324 325 325 326 327 328 328 326 325 325 326 327 328 327 328 328 329 330 330 329
319 319 318 318 318 319 320 321 321 323 323 322 322 322 321 321 321 321 320 319 319 317 314 313 311 310 309 309 310 310 311 310 310 308 314 321 316 313 323 332 335 335 334 333 330 325 319 320 325 320 314 312 313 312 313 315 316 318 319 320 322 324 325 326 326 326 327 328 328 328 329 328 327 327 327 328 328 329 329 329 329 329 329 329 328
319 319 318 317 318 319 319 321 321 322 323 322 322 321 321 320 320 321 321 320 319 317 314 313 310 310 309 309 309 309 309 309 309 308 312 318 320 319 321 329 333 334 333 329 325 322 319 321 322 315 312 312 312 313 316 319 322 322 322 323 324 324 324 326 327 327 329 329 329 329 329 329 328 328 329 330 330 330 330 330 329 329 328 328 328
319 319 318 318 319 319 320 320 321 322 322 322 321 321 320 320 320 320 322 321 319 316 313 313 311 311 309 309 309 309 309 308 309 309 310 312 320 324 323 327 331 332 329 323 321 321 322 322 317 312 312 312 313 317 322 325 325 324 322 323 324 325 326 328 328 329 329 330 329 330 330 329 328 329 330 331 331 330 330 329 329 328 328 328 328
319 319 318 318 319 319 319 320 321 322 322 322 321 321 320 320 320 320 321 321 319 315 313 313 312 311 309 309 309 309 309 308 309 309 311 312 318 322 322 326 330 329 322 317 319 321 322 319 313 311 312 314 318 324 327 328 326 324 323 323 325 327 328 329 330 329 330 330 330 330 330 329 329 331 332 332 331 330 330 329 328 328 328 328 328
320 319 319 318 319 319 320 320 321 321 322 322 321 321 320 320 320 319 320 321 320 315 313 314 313 311 310 309 309 309 308 308 309 309 311 312 318 320 322 328 329 325 316 315 318 320 320 314 311 312 314 319 324 328 328 328 326 324 323 323 326 328 329 329 330 330 331 330 330 330 330 329 330 332 333 332 332 331 329 328 328 328 327 327 328
320 318 319 318 319 319 319 321 321 321 321 321 322 321 321 321 320 320 319 321 320 316 314 313 312 311 310 310 309 309 308 308 308 309 310 313 318 317 322 329 327 319 313 314 317 317 316 311 311 313 318 324 328 329 328 327 326 325 324 325 326 328 329 330 330 331 331 330 330 330 329 330 332 333 333 332 331 330 328 328 328 328 327 327 327
321 319 319 319 319 320 319 321 321 321 321 321 321 321 321 321 320 320 320 321 320 317 314 313 312 311 310 310 309 309 308 308 308 308 310 313 317 317 321 326 320 314 312 314 315 314 312 311 312 316 323 327 328 328 327 327 326 327 327 326 327 328 329 330 331 330 331 331 331 331 330 331 332 332 332 332 330 329 328 327 328 327 326 327 327
324 320 318 319 319 320 320 321 321 321 321 321 321 321 321 321 321 320 320 321 320 317 314 314 313 311 311 310 309 309 308 308 307 308 309 312 316 318 320 320 315 312 312 313 313 312 311 311 313 319 325 327 328 328 327 328 328 328 328 328 329 329 330 331 331 330 331 331 331 331 330 331 331 331 332 332 329 328 327 327 327 326 325 326 326
326 324 320 319 319 320 320 320 321 321 320 321 320 321 321 321 321 321 321 321 320 317 315 314 313 312 311 310 310 309 308 308 307 307 308 311 315 318 318 315 312 311 312 312 311 311 311 312 315 320 325 327 327 326 327 329 329 329 329 329 330 330 330 331 331 330 330 331 331 331 331 331 330 331 332 331 329 327 327 326 326 326 326 326 326
327 329 324 320 319 319 320 320 321 320 320 321 320 320 320 321 321 321 322 322 320 317 316 314 313 312 311 310 310 310 309 308 307 307 308 310 313 317 316 313 312 311 311 311 311 311 312 314 318 321 323 325 326 326 328 329 330 330 330 330 330 330 330 330 329 330 330 331 331 331 331 331 331 332 331 330 328 327 326 326 325 326 326 327 327
331 333 330 324 319 319 320 320 320 320 320 320 320 319 320 320 321 322 322 322 321 318 316 314 313 312 311 311 310 310 310 308 308 307 307 309 312 315 314 313 312 311 311 311 311 312 314 316 318 319 321 324 326 327 329 329 330 330 330 331 330 330 329 329 330 330 331 331 332 332 331 331 332 331 330 329 327 326 326 326 326 327 326 327 328
335 336 333 327 321 319 320 320 320 320 320 320 320 319 319 320 321 322 323 323 322 320 317 315 314 313 312 311 311 310 310 309 308 307 307 308 311 314 315 313 312 311 311 311 311 312 314 316 317 317 320 325 327 327 327 328 329 330 330 330 330 330 330 330 330 331 332 332 332 331 331 332 332 331 329 327 326 326 326 327 327 326 326 327 327
337 336 334 328 321 319 319 320 321 321 321 320 320 320 320 320 321 322 324 324 323 320 317 315 315 313 312 311 311 311 310 309 308 308 307 308 310 314 315 313 312 311 311 311 311 311 313 314 314 315 319 324 325 325 325 327 329 329 329 330 330 330 330 331 330 331 331 332 332 332 332 332 332 331 329 326 326 326 326 327 327 325 325 326 325
338 338 335 329 322 319 320 320 321 321 321 320 320 320 320 321 322 323 325 324 323 321 318 316 315 313 311 311 310 311 310 310 309 308 307 308 310 313 316 314 311 311 311 311 311 311 312 313 313 315 318 321 323 323 324 326 328 329 329 329 329 330 331 331 331 331 331 332 332 332 333 333 331 329 328 326 326 326 326 327 326 324 325 325 323
341 339 334 329 322 319 319 320 320 320 320 320 320 320 321 321 322 325 326 324 323 321 319 317 315 312 310 310 310 310 311 310 309 309 308 308 309 313 316 314 312 311 311 311 311 311 312 312 313 315 317 319 322 323 324 325 326 328 328 328 328 329 329 330 330 330 331 332 332 333 333 333 330 328 327 326 326 326 326 326 326 325 324 323 321
341 338 333 327 322 320 319 319 320 320 320 320 320 320 321 322 323 326 326 325 324 322 319 317 314 310 309 309 309 310 310 310 310 309 308 308 308 311 315 315 312 311 311 311 311 310 311 312 313 316 317 319 321 322 323 323 324 325 325 326 326 326 327 328 329 330 331 332 332 333 334 332 329 328 328 326 326 327 325 325 326 324 323 322 320
339 334 333 328 323 319 319 319 319 320 320 320 320 320 321 322 324 326 327 326 325 323 320 318 314 309 309 309 309 309 310 310 310 309 309 308 308 310 314 316 313 311 311 311 311 310 311 312 313 316 318 320 321 321 322 322 321 321 322 323 323 325 326 328 330 331 332 332 333 333 334 332 329 329 329 327 327 327 325 325 325 324 323 320 313
337 333 331 329 325 320 319 319 318 319 319 320 320 320 321 322 324 326 327 326 326 324 321 318 313 309 308 309 308 309 309 310 310 310 309 309 308 309 313 315 314 312 311 311 311 310 311 312 314 317 320 322 323 322 322 320 320 319 319 320 323 326 329 330 332 332 332 332 332 332 332 329 328 330 330 327 327 326 325 324 324 324 320 312 304
339 335 331 328 326 321 319 318 318 319 319 319 319 320 321 321 323 325 326 327 326 324 322 318 312 308 308 309 309 309 309 310 310 310 310 310 309 308 311 314 315 313 311 311 311 311 312 313 316 320 322 323 323 321 321 320 319 319 320 322 327 330 331 332 332 332 332 331 330 329 328 325 325 329 329 327 326 325 324 324 323 319 311 303 301
339 335 332 328 325 321 319 318 318 318 318 319 319 320 321 321 323 324 326 326 326 325 322 319 312 308 308 308 309 309 309 310 310 311 310 310 309 308 309 313 315 314 312 311 311 312 312 314 318 321 323 322 321 320 320 320 320 322 324 327 331 331 331 332 332 332 331 330 327 325 324 322 323 326 325 324 324 323 322 319 314 308 302 301 301
336 332 329 326 323 320 319 318 318 318 318 318 318 320 320 321 322 323 325 326 327 325 322 319 311 308 309 309 309 309 310 310 310 311 311 310 310 309 308 311 314 314 313 311 311 312 312 315 320 322 322 322 322 321 322 323 324 327 329 331 331 331 332 332 332 331 330 329 326 323 320 319 320 321 320 319 319 317 313 308 304 302 301 301 301
337 331 327 325 322 319 319 318 318 318 318 318 318 320 320 321 322 322 324 326 327 325 322 318 310 308 309 309 310 310 310 311 311 311 311 311 310 309 308 309 312 314 313 312 311 311 312 316 321 322 321 322 324 324 325 327 328 330 331 331 331 332 332 332 332 331 330 327 324 321 318 317 316 315 314 313 310 307 304 302 301 301 301 301 301
338 334 332 329 326 323 321 319 319 318 318 318 318 319 320 321 321 322 324 325 327 325 323 318 310 308 309 309 311 312 312 312 312 312 311 311 311 310 309 308 309 312 313 312 312 312 313 317 322 321 319 321 324 326 328 329 330 330 331 331 331 332 332 332 331 331 329 326 324 322 319 318 314 311 310 307 303 302 302 301 301 301 301 301 301
340 338 336 335 333 331 327 323 321 319 319 318 318 318 319 321 322 323 324 325 327 325 322 317 309 308 309 310 313 315 316 317 317 315 313 312 312 311 310 309 308 309 311 312 313 313 314 317 319 317 316 319 323 327 329 330 330 330 331 331 332 332 332 332 331 331 329 326 326 323 322 320 312 307 305 303 302 302 301 301 301 301 301 301 301
341 340 339 337 336 335 333 328 323 321 319 318 318 318 319 320 322 323 323 325 326 324 321 316 309 308 310 312 316 319 321 323 325 324 320 315 313 312 311 310 310 309 309 311 312 313 315 316 317 319 320 323 326 328 330 330 330 331 332 332 332 332 332 332 331 330 328 326 326 324 324 320 309 303 302 301 302 301 301 301 301 301 301 301 301
341 341 340 340 338 336 333 330 326 322 319 319 318 318 319 320 321 322 323 325 325 323 321 315 310 309 310 313 319 323 325 328 330 330 327 322 315 313 313 313 312 311 310 311 313 313 315 318 322 326 327 328 330 330 331 331 331 332 332 332 332 332 332 332 331 330 326 324 324 322 323 317 305 301 302 301 301 301 301 301 301 301 301 301 301
340 341 341 341 339 336 332 328 326 323 320 319 318 318 319 320 321 322 323 324 325 323 320 315 310 310 311 315 321 324 328 330 331 331 330 329 323 316 314 315 314 315 314 315 317 319 322 326 329 330 331 331 331 331 331 331 332 332 332 333 332 332 332 331 331 328 324 323 321 320 320 312 302 301 302 301 301 301 301 301 301 301 300 300 300
338 340 341 340 340 336 330 326 324 323 321 319 318 318 318 320 321 323 323 324 324 323 321 315 311 311 311 314 318 323 329 331 331 331 330 330 330 324 321 321 320 319 320 321 324 326 328 330 331 331 332 332 332 332 332 332 333 333 333 333 332 332 331 331 329 326 323 322 320 318 315 307 301 301 301 301 301 301 301 301 301 301 300 300 300
336 340 341 340 339 336 330 325 323 322 321 319 318 318 318 320 322 323 323 324 324 323 321 316 312 312 312 315 320 324 330 332 331 332 330 330 331 330 329 328 328 327 326 326 328 329 330 331 332 332 332 333 333 333 333 333 333 333 333 332 332 332 331 330 327 325 324 321 318 316 309 302 301 301 301 301 301 301 301 300 300 300 300 300 300
335 339 341 340 339 335 330 325 322 321 320 319 318 318 320 321 323 325 324 325 325 324 322 317 313 312 314 321 326 328 331 333 332 332 331 331 332 332 332 332 332 332 331 331 331 332 332 332 332 332 332 333 333 333 333 333 333 333 332 332 331 331 330 328 326 325 324 320 317 312 305 301 301 301 300 301 300 300 300 300 300 300 299 300 299
335 337 339 340 338 334 330 327 324 323 320 319 319 319 321 323 325 326 326 326 328 326 322 317 313 312 317 325 328 328 331 333 333 333 333 333 333 333 333 332 333 334 335 334 334 333 334 334 334 333 333 333 333 333 333 332 332 332 332 331 331 330 329 327 326 325 322 319 314 307 301 300 301 300 300 300 300 300 300 300 300 299 299 299 299
334 337 339 339 337 334 331 330 328 327 325 322 320 321 323 325 327 328 327 328 330 328 323 317 313 314 320 325 326 326 329 332 333 334 334 334 334 333 333 333 333 335 335 335 335 334 334 334 334 334 333 333 333 333 332 332 332 332 331 331 330 329 327 326 326 324 320 316 309 302 301 301 300 300 300 300 300 300 300 299 299 299 299 299 299
335 337 339 339 337 335 334 333 332 333 332 327 323 323 325 327 329 329 329 330 331 329 324 318 315 317 322 324 325 326 330 332 333 333 334 334 334 334 333 333 334 335 336 335 335 335 334 334 334 334 333 333 333 333 332 332 332 331 331 330 329 328 326 326 325 322 318 311 303 301 301 300 300 300 300 300 300 299 299 299 299 299 299 299 299
339 338 339 338 337 337 336 336 336 336 336 332 327 326 327 329 330 330 330 331 332 330 325 321 319 320 324 325 324 328 331 332 332 333 333 334 334 334 333 333 333 335 335 335 335 335 335 334 334 334 334 333 333 333 333 332 331 330 330 329 328 327 326 326 324 320 315 306 301 301 301 300 300 300 299 300 299 299 299 299 299 299 299 299 299
340 340 339 339 338 338 337 338 338 338 338 334 330 328 329 330 331 332 332 332 333 331 326 324 324 324 325 324 324 328 331 332 333 333 333 333 334 334 333 332 333 335 335 335 335 335 335 334 334 334 333 333 333 332 333 332 331 330 329 328 326 326 325 324 321 317 309 302 300 300 300 300 300 299 299 299 299 299 299 299 299 299 299 299 299
340 340 340 339 338 338 337 339 339 339 338 335 331 330 331 332 332 333 333 333 334 333 328 326 326 326 325 324 325 328 331 333 334 334 333 333 334 333 333 332 333 334 335 335 334 334 334 334 334 334 333 333 332 331 331 331 330 328 327 326 326 325 324 322 319 313 304 300 300 299 299 300 300 299 299 299 299 299 298 298 298 299 299 299 299
340 340 339 339 339 338 338 339 339 339 338 335 332 331 332 333 333 334 333 333 334 334 331 327 326 326 326 326 327 329 331 333 334 334 334 334 333 333 333 333 333 334 335 334 334 334 334 334 334 334 333 333 331 331 330 330 329 328 326 325 324 324 322 320 317 309 301 300 300 299 299 300 299 299 299 299 299 299 299 298 298 299 299 299 299
340 340 339 339 339 338 338 339 340 339 338 336 333 331 332 333 334 334 333 332 333 334 332 329 327 327 327 327 328 328 330 332 333 334 334 334 333 332 332 333 332 333 334 334 334 334 334 334 334 334 333 332 331 331 330 329 328 328 327 326 324 322 320 318 315 305 300 300 299 299 300 299 299 299 299 299 299 298 298 298 299 299 299 299 299
340 340 339 339 339 339 338 340 340 339 338 336 335 333 332 332 334 335 334 333 333 334 334 332 330 329 328 328 329 329 329 331 333 334 334 334 332 331 332 333 332 333 333 334 334 334 335 334 334 333 332 332 331 330 329 329 328 328 327 325 323 320 318 317 313 304 300 300 299 299 300 299 299 299 299 299 299 299 299 299 299 299 299 299 299
340 340 339 339 339 339 339 340 340 340 338 336 336 335 332 333 335 336 335 334 334 335 335 333 332 331 329 329 330 330 331 332 333 335 335 333 332 332 332 333 333 333 333 334 334 334 334 334 333 332 331 331 330 330 329 329 329 328 326 324 322 319 317 316 312 305 300 300 299 300 300 300 299 300 300 300 300 300 299 299 299 299 299 299 299
340 340 338 337 338 339 339 340 340 340 338 337 336 335 334 334 336 337 336 336 336 336 336 334 332 331 330 331 331 331 332 332 334 335 335 333 332 332 333 334 334 334 334 334 334 334 334 333 333 331 330 330 329 329 328 328 328 328 327 325 321 318 316 315 311 306 302 300 300 301 302 302 302 302 301 301 301 301 300 300 300 300 299 299 299
340 338 335 335 338 339 339 340 340 340 339 338 337 336 335 334 336 336 336 336 337 336 335 333 332 330 330 332 332 331 332 333 334 335 335 333 332 332 333 334 335 334 334 334 333 333 333 332 332 331 330 329 329 328 327 326 327 328 328 327 324 321 318 314 310 306 302 300 301 303 304 304 304 303 302 301 301 301 301 301 300 300 300 300 299
338 336 335 336 338 339 339 340 340 340 339 338 337 337 336 334 334 335 335 336 336 335 334 333 331 329 331 332 332 331 332 333 334 335 335 334 332 332 334 335 335 334 334 334 332 331 330 330 330 329 329 329 329 329 327 325 326 327 328 328 327 324 320 317 314 310 305 302 302 304 305 305 305 303 302 301 302 302 302 302 301 301 300 300 300
337 336 336 337 337 338 339 340 341 340 339 338 338 337 336 335 334 334 335 336 335 334 333 332 331 331 332 333 332 330 332 333 334 335 335 334 332 332 334 335 335 335 334 333 332 331 330 329 329 329 329 329 329 329 328 326 325 325 326 327 326 324 320 319 319 317 312 307 305 305 305 305 305 304 302 301 302 302 302 302 302 302 301 301 301
338 337 335 334 337 338 339 340 341 341 340 339 338 338 337 336 335 334 335 335 335 334 333 333 332 332 333 333 331 330 331 333 334 335 334 334 332 332 333 334 334 333 332 331 332 332 331 331 330 330 329 329 329 329 328 327 326 325 325 325 324 322 320 319 321 320 317 312 308 306 306 306 306 305 303 302 302 302 303 303 303 303 301 301 301
338 336 333 334 338 339 340 340 340 341 340 339 339 338 337 337 336 335 334 334 334 334 333 333 333 333 333 333 332 330 330 332 333 334 334 334 333 332 332 333 333 332 331 331 331 332 332 331 329 328 327 327 327 327 327 327 326 325 325 325 323 321 320 319 320 320 319 316 313 310 308 308 307 306 303 302 302 302 303 303 303 303 302 301 301
339 338 336 337 339 340 340 340 340 341 340 340 339 338 338 337 337 336 334 333 333 333 332 333 333 333 333 333 331 330 330 330 332 334 335 334 333 333 332 333 333 333 332 332 332 333 331 327 326 325 324 324 324 325 326 326 326 325 325 324 322 321 319 318 318 318 319 319 317 315 311 309 308 306 304 302 302 302 303 303 303 302 301 301 301
Wind_Speed
21 19 18 17 18 19 18 17 16 15 14 14 14 14 14 13 13 12 12 11 11 10 9 9 8 8 7 6 6 6 6 6 6 7 7 7 7 9 12 16 17 16 15 14 12 13 16 16 16 15 14 16 17 17 16 15 15 14 14 14 14 15 15 15 16 18 19 19 20 20 20 20 20 19 18 18 17 17 17 17 16 15 15 16 16
23 20 19 18 18 19 18 18 16 16 15 15 14 14 14 13 12 12 11 11 10 10 9 8 8 7 7 6 5 5 5 5 6 7 8 8 9 13 16 18 18 15 14 13 11 11 16 18 16 14 15 18 18 17 16 15 14 14 14 14 14 14 14 15 16 17 18 19 20 20 20 20 20 19 18 17 17 16 16 16 16 15 16 17 18
23 22 21 19 19 19 19 18 17 16 16 16 15 15 14 13 12 12 11 11 10 10 9 9 8 8 7 7 6 6 6 6 7 7 8 10 11 14 17 18 16 14 13 12 11 10 15 19 17 15 17 19 18 17 16 15 15 14 14 14 13 13 13 14 15 16 17 18 18 19 20 20 20 19 19 18 17 16 16 16 17 17 17 18 18
22 23 22 20 20 19 19 18 17 17 17 16 16 15 14 14 12 11 11 11 11 10 10 10 9 8 8 8 8 8 8 8 8 8 9 11 12 14 19 18 15 13 12 12 11 10 15 20 18 17 19 20 19 17 16 15 15 14 13 12 12 12 12 13 14 15 16 16 17 18 19 19 19 19 18 18 17 17 17 18 18 17 17 17 17
23 23 22 22 21 20 19 18 18 18 18 17 16 16 15 14 12 11 12 11 11 11 11 10 9 9 9 9 9 10 10 9 9 9 9 11 13 15 19 20 17 13 11 12 11 11 17 21 20 20 21 20 19 17 16 15 14 13 12 11 11 11 12 13 14 14 15 16 16 17 18 18 17 17 17 17 18 18 18 18 17 17 16 17 16
23 23 22 22 22 21 20 19 19 19 18 17 16 16 15 14 12 12 12 11 11 11 11 11 10 10 9 9 10 11 10 10 9 9 9 11 13 14 17 17 16 14 12 12 13 15 20 22 21 22 22 21 19 18 16 14 13 12 11 11 11 11 12 13 13 13 14 15 15 15 16 17 17 16 16 17 17 17 17 17 16 16 16 16 16
23 23 22 22 22 22 20 20 19 19 19 18 17 15 14 13 12 12 12 11 11 12 11 10 10 9 9 9 9 10 10 10 10 9 9 10 11 13 14 15 14 14 14 14 16 18 21 22 23 24 22 21 19 17 15 14 12 11 10 10 11 12 12 12 12 12 13 14 14 14 15 16 16 16 15 15 16 16 16 16 16 16 15 15 15
22 22 22 22 22 22 21 20 20 19 19 18 17 16 14 13 12 12 12 12 12 12 11 10 10 9 9 9 9 9 10 10 10 9 8 9 11 12 14 15 14 14 15 17 18 19 22 24 25 24 22 20 19 17 15 13 12 11 10 10 12 12 11 11 11 11 11 12 12 13 15 15 15 14 14 14 14 15 15 15 16 15 15 14 14
22 22 22 22 22 22 21 21 20 19 19 18 18 16 14 13 12 12 12 12 12 12 11 11 10 9 9 9 9 9 9 9 10 10 8 8 10 13 14 16 15 15 17 19 19 21 23 25 25 24 22 20 18 16 14 13 11 10 9 10 11 10 10 10 10 10 10 10 11 12 14 14 14 13 12 13 14 14 15 15 15 14 14 13 13
22 22 21 22 21 22 22 21 21 20 19 18 18 16 15 13 12 12 12 12 12 12 12 11 10 9 9 9 9 9 8 9 9 9 9 9 10 13 15 16 16 18 19 19 21 23 25 25 25 23 21 19 17 15 13 11 10 9 8 8 10 9 8 8 8 8 8 9 10 11 13 13 13 12 11 12 14 14 15 15 14 13 13 13 12
22 21 20 22 21 21 22 22 21 20 19 18 17 16 15 14 13 12 12 12 12 12 12 11 10 9 8 8 9 9 8 8 9 9 9 9 10 13 15 17 19 20 20 20 22 23 24 25 24 22 20 18 15 13 12 10 9 8 7 7 8 7 6 6 6 6 7 8 9 11 12 12 13 12 11 12 14 14 14 14 13 12 12 12 11
23 22 21 22 22 22 22 22 21 20 19 18 17 16 15 14 13 13 13 13 13 12 11 11 10 9 8 8 8 8 8 7 8 9 9 10 10 11 15 19 21 21 21 21 22 23 23 24 23 21 19 16 13 12 11 9 8 7 6 5 5 5 4 5 4 5 6 7 9 10 11 12 12 12 12 12 13 14 13 12 11 11 11 10 10
24 22 22 23 22 22 22 22 21 20 19 18 18 16 15 14 14 13 13 13 13 12 12 11 11 9 8 8 7 7 7 7 7 8 9 10 10 10 16 21 22 21 21 22 22 23 23 23 22 21 18 15 12 11 10 9 7 6 6 5 5 4 4 3 4 5 6 7 9 9 10 11 11 11 12 12 13 12 11 11 10 10 10 10 9
24 23 23 23 23 23 23 22 21 21 20 19 18 16 16 15 14 13 13 13 13 12 12 11 11 9 9 8 7 7 7 7 7 8 9 9 9 11 17 21 22 22 22 23 23 23 23 23 22 20 17 14 12 11 9 8 7 6 5 6 6 6 5 4 5 6 7 8 8 9 9 10 10 10 11 11 11 11 10 10 10 10 10 10 10
22 22 24 24 24 24 24 23 22 21 20 19 18 17 16 15 14 13 13 13 13 12 12 12 11 10 9 8 7 7 7 7 7 7 8 9 9 12 17 21 22 22 22 23 23 23 23 22 21 19 16 13 11 10 9 7 6 6 5 6 7 7 6 5 6 7 7 8 8 8 9 9 9 10 10 10 11 10 10 10 10 10 10 10 10
20 22 24 24 26 26 25 24 23 21 20 19 18 17 16 15 14 13 13 13 13 12 12 12 11 10 9 9 8 7 7 7 7 7 8 8 9 12 16 20 22 22 22 22 22 22 22 21 20 18 15 12 11 10 8 7 6 5 5 5 6 5 5 5 5 6 7 8 8 8 8 8 9 10 10 11 11 10 10 9 9 10 9 9 9
21 23 24 25 27 27 27 26 24 22 21 20 18 17 16 16 15 14 13 13 13 12 12 12 11 10 9 9 8 7 7 7 7 7 7 8 9 12 16 20 21 22 22 21 22 22 21 20 19 17 15 12 10 9 7 6 5 5 4 4 4 4 4 4 4 5 6 8 8 8 9 9 9 10 10 10 10 9 9 9 9 10 10 9 10
23 23 24 25 27 28 28 27 26 24 22 21 19 18 17 16 15 14 14 14 13 13 13 12 11 10 10 9 8 7 7 7 7 7 7 8 9 11 16 20 21 21 21 21 21 21 20 19 17 16 14 12 9 8 7 6 5 4 3 3 3 3 3 2 3 4 6 7 7 8 9 9 9 9 9 9 9 9 9 8 9 9 9 9 10
24 24 24 25 27 28 29 28 27 26 24 22 21 19 18 17 16 15 15 14 14 13 13 12 11 11 10 10 9 8 7 7 7 7 8 8 9 12 15 19 20 20 20 20 20 20 19 18 16 15 13 11 9 7 6 5 4 4 2 1 0 1 1 2 3 5 6 7 7 8 8 8 8 8 9 8 8 8 7 7 8 7 7 9 10
25 25 25 26 28 29 29 29 28 27 25 23 22 20 19 19 18 16 16 15 14 14 13 12 12 11 11 11 10 9 8 7 7 7 8 8 9 11 15 18 19 20 19 19 19 19 18 17 15 13 12 11 9 8 6 5 4 4 3 2 2 2 2 3 4 6 7 7 7 7 6 6 8 8 8 8 7 6 6 7 7 7 9 11 13
27 27 26 27 28 29 30 30 29 28 26 24 22 21 20 20 19 18 17 16 15 14 13 12 12 12 12 12 11 10 9 8 8 7 7 8 9 11 14 16 18 19 18 18 18 18 17 16 14 13 11 10 9 8 6 5 4 4 3 2 3 3 3 4 6 7 7 7 6 5 5 6 7 7 6 7 6 5 6 7 7 10 12 15 14
29 29 28 29 29 30 31 30 30 28 27 25 24 22 21 21 20 20 19 18 17 15 14 13 12 12 13 13 12 11 10 9 8 7 7 8 9 11 14 15 17 19 18 17 17 17 16 16 14 13 11 10 9 8 7 5 5 4 3 2 2 3 4 5 6 7 6 6 5 4 4 4 5 6 6 6 5 6 8 9 9 12 15 15 11
29 31 31 31 30 31 32 31 30 29 27 26 25 24 23 22 22 21 20 19 18 16 14 13 12 13 13 13 12 12 11 10 9 8 8 7 8 10 13 15 17 18 18 17 16 16 16 15 14 13 12 10 9 8 7 6 5 4 2 2 2 3 4 6 6 6 6 5 5 5 5 4 4 4 4 5 6 8 10 11 12 14 14 11 9
31 31 32 32 32 32 32 31 30 29 28 27 26 25 24 23 22 22 21 20 18 16 15 13 13 14 14 14 13 13 12 11 10 9 9 8 8 9 12 15 16 17 17 16 16 15 15 14 14 13 12 10 9 8 7 6 4 3 2 1 2 3 5 5 5 5 5 5 5 5 5 5 4 3 6 8 9 11 11 12 13 12 10 9 9
31 30 32 33 33 33 32 32 31 30 29 28 27 26 25 24 23 22 21 20 18 16 15 14 14 15 15 14 14 13 12 11 10 9 9 8 8 9 11 14 16 17 17 16 15 15 14 14 14 13 11 10 10 9 7 5 4 3 2 2 3 4 5 5 4 4 5 6 7 7 7 7 5 5 8 9 11 11 11 11 9 9 8 9 10
30 30 32 32 32 33 33 32 31 31 30 29 27 27 26 25 24 23 21 20 19 17 16 15 16 16 16 15 14 14 13 12 11 10 9 9 8 9 10 12 15 16 16 16 16 15 15 15 14 13 11 11 10 9 7 5 4 3 3 3 4 5 5 4 4 5 6 7 9 9 9 9 8 8 10 10 10 9 9 8 7 8 8 9 10
32 32 31 30 31 31 32 33 32 31 30 29 28 28 27 26 24 23 22 21 19 18 16 16 17 17 16 16 15 14 13 12 11 10 10 9 9 9 10 11 13 15 16 16 15 15 15 15 14 13 12 11 10 9 8 6 5 4 4 5 5 5 5 5 5 5 7 9 10 10 10 11 10 9 9 10 9 7 7 7 7 8 9 10 11
34 33 31 30 30 30 31 32 32 32 31 30 29 29 28 26 25 24 22 21 20 19 17 17 17 18 17 17 16 14 13 12 11 11 10 10 10 9 9 10 12 13 15 15 15 15 15 15 14 12 12 11 10 9 8 7 6 5 5 5 5 5 5 6 6 7 9 10 10 9 10 12 11 8 7 7 7 7 6 7 8 9 9 10 11
35 34 32 31 30 29 30 32 32 32 32 31 30 30 29 27 26 25 23 22 21 19 18 18 18 19 18 18 17 15 14 13 12 11 10 10 10 10 10 10 10 11 13 13 14 14 14 14 13 12 11 10 10 8 8 8 7 6 5 4 4 5 5 6 6 8 10 10 10 9 10 11 9 6 5 5 6 6 7 8 9 9 10 10 11
35 33 32 32 30 29 30 32 32 32 32 31 30 30 30 28 27 25 23 23 21 19 18 19 19 19 19 18 17 15 14 13 12 11 11 11 10 11 11 11 10 10 11 12 12 13 13 13 12 11 10 10 9 8 7 8 7 7 5 4 4 5 5 5 6 9 10 10 10 9 10 9 6 4 4 5 5 6 7 9 9 10 10 10 11
34 33 33 32 31 30 30 31 32 33 32 32 31 31 30 29 27 24 23 23 21 20 20 19 19 19 19 19 17 15 14 13 12 11 11 11 11 11 11 11 11 10 11 11 12 12 13 12 11 11 10 9 8 7 7 7 7 6 5 4 4 5 4 5 7 9 10 10 10 10 9 7 5 4 4 5 6 7 8 8 9 9 9 10 11
35 35 33 32 32 30 30 31 32 32 32 32 31 31 30 29 26 25 24 22 21 20 20 20 20 20 19 19 17 15 14 14 13 11 11 11 12 12 12 11 10 10 11 11 12 12 12 11 11 11 10 9 8 7 7 6 6 5 5 5 5 4 4 5 7 9 10 11 10 10 8 6 4 4 5 6 6 7 8 8 8 8 9 10 11
36 36 33 32 32 30 30 31 32 32 32 32 31 31 30 28 26 25 24 22 21 21 21 20 20 20 20 19 18 17 16 15 14 12 11 11 11 11 11 12 11 11 11 12 12 12 12 12 12 12 10 9 8 7 6 6 6 6 6 5 5 4 4 6 8 9 11 11 10 10 8 5 5 5 5 6 6 7 7 7 7 8 9 10 10
36 36 34 33 31 30 30 31 31 32 32 32 31 31 30 28 27 25 24 23 22 21 20 20 20 20 20 19 17 17 17 16 14 13 12 11 11 11 11 12 12 12 12 13 13 12 13 12 13 12 11 10 8 7 6 6 7 6 7 6 5 4 5 6 8 10 11 11 10 9 6 5 5 4 5 5 6 6 6 6 6 7 8 8 9
38 36 35 32 31 30 31 31 31 31 31 32 31 31 30 29 27 26 25 23 22 21 21 21 21 20 20 19 17 17 17 16 14 13 11 10 10 10 11 12 12 12 12 13 13 13 13 13 12 11 11 10 9 8 7 7 7 7 7 6 5 5 5 6 8 11 11 11 9 6 5 5 4 4 5 5 6 5 5 5 6 6 7 7 7
40 37 35 32 31 32 31 31 31 30 31 31 32 32 31 29 28 27 25 24 22 21 21 21 21 21 20 19 17 17 17 15 13 12 11 9 9 10 11 12 13 13 12 12 12 12 13 12 11 10 9 9 9 9 8 8 8 8 8 6 6 5 6 7 9 11 11 9 6 5 4 4 4 5 5 5 5 5 5 5 6 6 6 6 6
41 38 36 33 33 33 32 31 31 30 30 31 33 33 31 30 29 27 26 25 23 22 22 22 22 21 20 19 18 18 17 14 12 11 10 9 9 10 11 13 13 13 12 12 12 12 11 11 10 9 9 9 9 9 9 9 10 10 8 7 6 6 7 8 10 11 9 7 5 3 2 2 3 4 4 4 4 4 5 6 6 6 5 5 6
42 39 37 34 34 34 32 31 30 28 28 31 33 33 32 31 29 27 26 25 24 23 22 23 23 22 21 19 19 19 17 14 12 11 11 11 10 11 12 13 14 13 13 13 12 12 11 11 10 10 9 9 9 10 10 11 11 11 9 8 8 7 8 9 10 10 8 5 4 3 1 1 2 3 3 3 4 4 5 5 5 5 5 6 6
41 40 38 34 34 34 33 31 30 28 28 30 33 33 32 32 30 28 27 27 25 24 23 24 24 23 21 20 20 19 17 14 12 12 12 12 12 12 13 14 14 14 14 14 13 13 13 12 12 11 10 10 9 10 11 12 12 11 10 9 9 8 8 9 9 8 6 4 3 2 1 2 2 2 3 3 3 3 4 4 4 5 5 6 7
41 40 39 36 36 36 34 33 32 30 29 31 33 34 34 34 32 31 30 29 27 26 25 25 24 23 21 20 19 18 16 14 12 12 13 12 12 13 14 14 14 14 15 14 13 13 13 12 12 12 11 11 10 11 12 13 13 12 11 10 10 9 9 8 8 7 4 2 1 1 1 1 1 2 2 2 2 2 2 2 3 4 5 6 7
41 41 39 38 38 38 36 35 34 33 32 33 35 37 38 37 36 35 33 32 30 28 26 26 26 23 22 20 19 18 17 14 13 13 13 13 13 13 14 14 15 15 15 14 14 14 13 12 12 12 12 13 12 13 14 14 13 13 12 11 10 10 9 8 8 6 4 2 1 1 1 1 1 1 1 1 1 1 1 2 3 4 6 7 8
43 42 41 40 40 39 38 36 35 35 35 34 35 38 38 38 38 37 35 33 32 30 28 28 26 24 22 20 18 18 17 15 14 13 13 13 14 14 14 14 15 15 15 15 15 14 14 13 13 14 13 13 13 14 15 15 15 14 12 10 10 10 10 10 9 7 5 3 2 2 2 2 2 1 1 1 1 1 1 2 4 5 6 7 9
43 42 42 41 40 41 40 38 37 37 36 35 34 36 37 38 37 35 34 33 32 31 29 27 25 24 22 20 18 17 17 17 15 14 14 14 14 14 14 14 14 15 15 15 16 15 14 14 14 14 14 14 14 15 16 16 16 14 11 10 10 10 10 12 11 8 6 5 4 4 4 4 3 3 2 2 2 1 2 3 4 6 7 8 10
42 42 42 42 42 43 42 40 38 37 37 35 34 34 36 37 35 33 33 32 31 31 29 28 26 24 23 20 18 18 18 17 16 15 14 15 15 15 14 14 14 14 15 15 16 16 16 16 15 15 14 15 16 17 17 17 18 16 12 10 11 10 11 12 11 10 8 7 7 7 6 6 5 4 3 2 1 1 3 4 5 6 8 9 10
44 44 43 43 44 45 44 41 39 38 37 35 34 35 36 36 36 35 34 33 32 32 32 30 28 26 25 22 19 19 19 18 16 16 15 15 15 15 14 14 14 14 14 14 15 15 16 16 16 15 15 15 16 17 18 19 19 19 16 13 11 10 11 11 10 11 10 9 9 9 8 7 7 5 3 2 1 2 4 5 5 7 8 10 11
47 46 45 45 44 45 45 42 40 38 37 36 35 36 37 38 39 39 38 37 36 35 34 32 30 28 25 22 20 20 20 18 17 17 16 16 16 15 14 14 14 14 14 14 14 15 15 16 16 16 16 16 16 17 18 19 20 21 20 19 16 14 12 10 10 11 10 11 11 10 9 8 7 5 4 4 3 3 5 6 6 7 9 11 12
51 48 47 47 45 45 45 44 41 39 38 37 37 37 38 39 40 41 40 39 38 36 34 30 29 27 24 21 21 22 21 19 18 17 16 16 16 15 14 14 14 15 15 14 12 12 13 14 15 15 16 17 17 18 18 18 20 21 21 21 21 19 16 12 11 10 10 12 13 12 11 9 8 7 7 6 5 4 5 7 7 8 10 12 13
53 51 50 49 46 45 46 45 43 40 38 38 38 38 38 40 41 41 40 38 37 35 32 29 27 25 23 22 22 23 22 21 19 18 17 17 17 16 15 15 16 16 15 13 12 11 12 13 14 14 16 18 18 18 17 18 19 19 20 21 20 20 18 14 12 10 9 11 14 15 13 11 9 9 9 8 7 6 6 8 9 10 10 12 14
54 53 52 49 47 47 47 46 44 42 40 39 38 38 38 39 40 41 41 39 36 34 31 29 27 25 24 23 23 24 23 22 20 18 18 18 18 17 16 17 16 16 14 13 13 13 12 13 14 15 16 17 17 17 17 17 18 18 19 19 19 19 18 16 14 12 11 11 13 15 15 13 12 11 11 10 8 7 8 10 11 12 12 12 14
55 54 52 49 48 48 48 48 46 44 42 40 39 39 39 39 40 40 40 39 38 35 31 28 27 26 25 24 24 24 24 23 21 20 20 20 19 18 17 17 16 15 14 14 15 14 13 13 13 14 15 15 15 16 16 17 18 18 18 18 18 17 17 17 16 15 14 13 13 13 15 15 14 13 13 11 10 10 10 12 13 13 13 13 15
54 53 51 50 49 49 50 49 47 46 43 40 39 39 39 40 40 40 40 39 38 36 32 29 28 27 26 25 24 24 24 24 22 21 21 21 19 18 17 17 16 16 16 16 16 14 12 13 14 13 13 13 12 13 16 17 18 19 19 18 18 17 17 17 16 16 15 15 14 13 13 16 15 14 14 13 12 13 13 14 15 14 13 14 15
Wind_Direction
176 172 174 177 174 170 171 175 179 184 180 178 174 172 169 164 162 159 159 157 157 155 154 155 156 156 157 157 160 166 169 176 172 175 175 171 159 127 118 121 119 118 124 129 142 164 170 158 147 144 143 145 142 140 136 131 128 123 119 113 108 102 97 92 88 83 79 74 70 66 62 58 55 52 50 49 48 46 46 45 44 43 42 40 37
168 169 174 177 177 170 171 176 180 182 179 179 177 174 170 166 164 162 161 159 158 154 151 148 144 139 136 133 134 141 149 158 156 162 160 159 142 119 116 118 117 119 123 127 130 152 171 163 151 148 145 145 142 139 135 133 130 124 120 114 107 101 94 89 85 82 78 74 69 64 59 55 53 50 47 45 44 44 43 42 40 38 38 36 33
166 169 174 177 177 172 171 176 181 181 180 180 178 176 171 167 165 163 162 158 154 147 143 135 128 123 118 114 111 115 127 139 141 147 145 147 138 124 124 120 120 124 126 134 139 152 168 164 155 150 148 146 141 138 137 136 132 126 122 115 108 99 91 86 83 79 76 72 66 60 55 51 49 46 43 41 40 40 38 38 36 35 35 34 32
171 170 173 177 177 173 171 174 180 181 180 182 179 177 171 167 165 163 160 154 149 141 135 127 121 115 109 107 103 102 111 123 128 133 132 137 135 129 130 127 125 131 139 148 151 158 164 162 156 151 149 145 140 139 139 137 133 129 123 115 107 98 89 83 79 75 72 70 65 58 54 50 47 44 41 39 39 38 35 35 34 34 35 32 30
174 173 174 176 177 174 172 175 179 181 182 182 181 177 171 166 163 161 158 152 146 140 133 125 120 113 106 103 98 98 105 113 119 125 126 128 128 130 136 136 133 139 155 162 158 154 156 158 155 150 147 142 140 141 140 137 132 128 121 114 106 97 88 82 77 72 69 69 65 58 55 50 47 45 41 39 39 38 36 34 33 32 31 29 28
176 173 176 178 176 174 172 175 179 182 183 183 182 178 171 165 162 160 156 152 146 139 132 126 118 109 101 95 93 97 103 110 114 119 122 125 125 129 138 142 140 145 158 160 154 148 150 152 152 149 145 142 142 142 139 135 132 129 124 117 105 93 85 81 77 72 70 69 65 57 53 48 44 44 43 40 38 36 33 31 29 28 28 28 28
180 175 177 182 175 173 173 176 180 184 184 183 183 179 173 166 162 159 155 152 146 139 133 126 118 106 97 92 93 95 101 108 111 115 118 122 124 128 136 140 138 143 152 150 147 147 149 150 150 147 144 144 143 141 138 137 135 132 128 117 102 91 85 82 80 75 71 68 64 54 48 45 41 43 44 41 39 34 30 27 25 26 26 26 26
183 179 177 183 178 173 174 177 181 185 187 185 184 180 175 168 163 159 154 152 148 142 137 130 121 110 102 97 96 96 101 106 109 113 116 117 122 129 131 132 130 137 143 142 144 147 149 149 149 147 145 145 143 142 141 141 140 135 128 112 98 92 87 84 84 78 71 66 60 50 45 42 40 45 45 40 38 33 29 25 22 23 22 21 19
185 184 178 183 181 175 174 179 183 186 189 187 184 181 176 171 165 161 155 153 150 145 140 135 126 116 108 103 101 100 102 106 109 111 115 117 120 130 132 132 131 136 139 140 145 147 149 149 149 147 146 146 144 144 144 145 143 136 125 108 98 93 90 87 85 80 70 62 54 46 42 40 38 43 45 41 36 30 25 20 20 20 17 17 14
185 184 181 184 182 178 177 181 185 186 189 189 185 181 178 172 168 163 157 157 154 149 145 140 132 121 113 108 105 101 104 106 110 113 117 117 119 129 133 135 137 138 138 142 146 147 149 149 148 147 147 147 146 147 148 148 143 132 119 107 101 96 90 84 82 78 66 58 48 40 38 37 37 40 41 40 32 24 19 17 18 17 13 13 12
182 183 184 186 184 182 180 183 187 188 188 190 188 183 180 175 171 165 161 160 157 153 150 145 136 127 118 111 106 102 105 107 112 116 118 117 120 130 135 139 140 139 140 144 147 148 149 149 148 148 148 148 149 151 151 150 140 128 117 109 102 97 85 71 71 72 62 53 41 35 34 32 36 35 32 34 26 17 16 16 16 11 9 12 13
181 183 186 187 187 185 184 186 188 189 189 191 189 186 184 178 175 168 164 163 160 158 156 151 142 134 126 115 108 104 104 108 113 117 121 120 120 129 139 142 142 141 143 146 147 149 150 150 150 150 150 150 152 155 154 150 140 131 124 114 100 87 68 53 52 65 59 46 36 32 29 27 32 29 27 28 19 15 16 15 14 10 10 12 13
185 184 188 189 189 187 187 188 189 191 191 191 190 189 188 183 178 171 168 165 163 164 162 158 149 142 134 123 114 107 105 109 114 120 126 127 121 128 141 144 143 144 146 148 149 151 152 152 152 153 153 153 158 159 156 151 144 139 129 115 94 77 69 64 53 57 53 40 32 28 23 24 25 26 28 23 15 15 14 11 11 12 14 18 17
191 186 189 190 190 190 188 189 191 193 193 192 192 191 190 188 183 174 171 169 167 168 168 163 156 150 141 132 125 116 110 111 115 123 130 133 127 131 143 147 146 147 148 149 150 152 153 154 155 156 155 157 163 162 158 154 149 141 127 109 93 83 79 79 68 58 47 37 27 23 20 20 23 28 27 18 13 13 11 11 16 18 21 26 25
195 190 191 193 192 190 188 190 192 194 195 194 193 194 193 191 187 178 174 173 170 172 172 167 163 159 148 141 137 127 119 117 119 126 133 138 134 136 147 151 149 149 151 151 152 153 155 156 158 159 158 162 168 165 161 156 148 138 123 107 95 87 77 68 64 56 45 34 23 18 14 16 24 25 21 18 18 18 22 23 24 26 26 28 29
195 195 195 195 194 191 188 189 193 196 196 195 195 195 196 193 190 182 178 177 173 175 174 170 168 165 156 151 147 137 129 125 125 128 137 141 139 142 150 154 153 153 154 155 155 156 157 160 162 162 160 165 172 169 164 155 142 131 118 105 95 89 77 61 51 44 37 27 19 13 11 17 26 25 21 23 25 26 29 28 26 22 18 19 20
200 200 199 197 194 193 190 189 192 195 197 197 197 197 198 195 192 185 179 179 178 177 175 172 172 170 164 160 155 147 139 135 132 133 138 143 144 145 152 157 156 157 158 159 159 159 160 164 165 165 163 168 178 175 167 156 141 130 117 102 93 87 76 61 39 29 22 15 13 9 9 18 26 27 23 23 25 24 22 22 22 15 11 12 6
203 203 203 198 195 195 193 191 192 194 197 197 198 199 198 196 193 187 182 183 183 181 179 176 177 174 170 167 163 157 151 144 139 138 141 146 148 148 155 160 160 161 161 162 162 161 163 166 167 167 166 171 183 182 171 160 148 145 136 107 93 86 71 47 17 9 3 1 4 5 11 18 25 27 22 22 23 22 20 18 17 12 11 10 360
202 203 204 201 198 198 196 194 194 194 197 198 199 198 197 197 194 188 185 187 187 187 184 180 180 178 174 173 169 167 162 155 148 143 145 149 153 153 158 164 165 164 164 165 164 165 165 167 169 169 170 175 186 189 178 168 160 166 174 179 134 41 12 348 342 348 349 351 356 4 17 22 22 22 17 17 20 20 15 13 13 7 6 2 351
201 201 202 203 202 201 200 198 197 196 198 199 200 199 197 196 194 190 189 190 191 191 188 183 183 178 176 175 174 174 170 164 157 151 149 152 157 158 161 167 170 168 168 168 168 169 168 168 170 170 173 179 189 195 189 181 179 189 203 228 257 284 300 318 329 338 341 347 356 11 27 25 23 23 17 14 14 12 6 6 0 350 348 344 339
200 201 201 205 205 204 202 201 200 198 199 200 201 201 197 196 194 191 190 193 194 194 192 187 185 179 177 177 176 176 174 171 166 159 156 155 161 162 164 169 173 173 172 173 172 172 171 170 170 173 178 184 193 199 198 196 199 208 217 236 259 281 303 323 334 338 339 345 358 24 35 26 28 27 14 7 360 352 352 354 344 335 334 334 337
200 200 201 206 206 206 204 203 203 201 200 200 203 203 200 198 195 193 192 194 197 196 194 190 186 181 178 177 176 176 174 174 170 167 163 159 163 165 166 170 175 178 177 176 175 173 173 172 171 174 180 188 198 201 204 207 211 221 230 249 273 300 322 332 336 339 341 349 6 34 34 19 29 27 4 353 340 335 340 341 333 327 328 334 345
201 201 201 204 205 206 205 205 205 203 202 202 204 204 203 200 197 196 195 196 199 199 195 191 188 182 178 176 175 176 174 174 174 174 172 166 165 167 169 171 176 180 181 179 177 175 175 173 172 174 180 189 200 204 207 213 218 224 231 256 301 327 329 328 332 337 345 0 15 33 30 13 30 29 345 319 315 326 328 327 325 324 330 345 2
199 201 200 201 202 205 206 206 206 205 205 204 205 204 204 203 200 199 197 199 201 201 197 193 189 184 179 177 175 176 176 176 178 180 178 174 168 168 172 175 178 181 183 182 179 178 177 176 174 174 181 190 200 206 210 212 213 218 229 273 312 326 326 325 332 343 355 9 12 17 18 13 23 352 306 302 314 325 325 324 326 331 346 4 13
196 197 197 198 200 203 205 207 207 207 207 207 207 205 206 204 203 201 199 202 202 202 199 194 191 186 181 177 176 176 177 178 180 183 181 178 172 168 172 177 180 181 184 184 183 182 181 180 176 178 184 190 200 208 214 212 207 212 229 283 300 313 321 326 334 345 2 13 9 10 14 14 9 330 314 318 326 330 329 333 339 351 6 14 18
195 195 195 195 197 200 204 207 208 208 208 209 208 206 207 205 205 203 201 202 203 202 200 196 192 187 182 177 177 176 177 178 178 183 183 179 174 169 170 178 183 183 185 187 187 186 184 183 180 184 190 194 202 210 216 216 216 225 246 280 293 309 317 322 331 342 2 10 8 11 15 12 5 342 332 334 339 340 340 347 360 10 16 18 21
197 198 196 194 196 199 203 207 208 208 208 209 208 207 207 206 207 205 203 204 203 202 200 199 194 188 182 177 177 176 176 179 180 181 182 179 176 173 172 178 185 187 188 189 189 188 187 186 186 193 197 198 204 210 218 226 233 244 257 273 288 307 313 314 326 342 359 4 5 9 9 4 357 348 340 340 346 352 354 2 13 20 21 19 20
201 202 200 197 197 198 201 205 207 208 207 208 207 207 208 206 206 205 204 204 204 203 200 199 196 189 182 179 178 177 179 181 182 179 181 182 177 176 176 180 186 190 191 191 190 189 189 189 191 197 198 199 204 211 223 235 243 250 256 267 284 301 303 306 322 343 354 355 358 1 360 354 350 349 345 342 350 359 5 13 19 22 21 19 18
208 204 203 202 201 202 203 204 206 207 206 207 207 207 208 206 205 206 205 205 205 202 198 200 198 190 184 183 181 181 183 183 184 181 182 186 181 179 180 182 186 188 190 191 190 190 189 189 190 192 194 197 203 214 227 235 239 243 252 266 283 293 293 303 325 343 348 349 353 354 349 346 346 347 348 350 0 6 11 17 19 19 17 17 16
214 208 207 207 205 205 206 205 206 206 206 206 206 206 207 206 205 207 206 206 205 199 198 200 199 192 186 186 185 182 183 186 189 185 186 188 184 182 183 187 189 186 184 183 183 184 183 182 185 189 192 198 204 214 225 229 232 239 252 264 278 286 292 312 332 340 346 351 353 350 342 342 347 352 359 5 13 15 16 18 18 17 15 15 16
216 211 210 210 208 208 207 207 206 205 204 205 206 206 206 206 205 206 206 206 204 200 199 200 199 195 189 190 189 185 185 191 193 189 189 189 185 184 186 191 192 187 181 178 177 178 177 178 187 193 195 200 203 210 221 226 233 242 250 256 271 282 297 322 334 338 346 351 349 344 340 345 354 4 13 17 19 20 19 16 15 16 16 17 18
217 213 211 212 211 209 208 207 206 204 203 204 205 205 206 205 204 204 206 206 203 202 201 201 201 196 192 194 193 191 190 195 197 192 190 188 186 186 189 195 196 190 184 183 183 183 183 187 197 202 202 204 206 210 216 223 237 246 247 254 265 278 300 322 331 339 344 345 345 343 345 357 10 16 19 20 20 19 17 13 12 13 16 19 19
218 213 210 214 214 209 208 207 205 202 201 203 204 205 206 204 202 202 204 204 202 204 203 202 202 199 196 196 194 193 194 198 199 194 189 187 187 189 193 197 199 196 193 196 197 197 198 202 208 210 210 213 216 218 219 221 231 242 247 252 256 268 297 318 328 335 338 340 343 344 352 8 17 22 20 21 19 16 16 11 10 12 15 18 16
218 213 210 213 214 210 209 207 203 201 200 201 203 204 205 203 200 201 202 202 203 204 204 203 204 201 197 195 193 193 196 199 198 196 193 190 192 196 199 201 203 203 204 207 208 210 212 214 216 217 219 221 221 225 227 225 226 234 241 246 251 265 293 311 324 331 334 337 340 343 356 11 16 24 24 25 20 15 13 9 11 13 15 15 11
219 215 211 211 212 210 207 204 200 199 199 200 202 203 204 202 199 199 200 201 204 206 205 204 204 202 197 195 195 196 198 199 197 196 195 196 199 203 206 206 206 207 209 211 213 216 218 219 220 221 225 223 219 222 223 224 228 234 236 241 249 264 288 307 322 327 329 331 335 345 4 11 15 29 28 26 20 14 9 9 17 19 15 12 10
220 215 211 209 210 208 205 203 198 197 198 199 201 202 203 201 199 199 199 200 205 208 205 204 206 204 199 198 199 200 201 199 197 197 196 200 207 209 211 209 207 208 210 211 213 217 219 219 218 218 226 227 222 219 216 219 227 232 233 238 246 265 289 306 317 320 322 326 337 355 8 13 23 32 31 25 17 11 12 19 25 22 15 9 8
219 214 210 208 208 206 204 204 199 197 199 199 200 201 201 201 200 199 199 200 206 209 206 205 207 206 203 202 202 203 203 202 201 201 200 203 209 213 215 211 207 208 210 211 210 214 218 220 218 215 222 229 229 224 219 218 220 225 229 235 248 265 283 299 309 312 317 325 342 355 357 15 34 38 32 24 13 11 18 24 22 16 8 3 0
217 213 210 209 209 206 206 206 201 200 201 201 200 199 200 200 200 200 200 201 206 209 207 206 209 210 208 206 204 204 204 205 204 204 206 208 211 213 215 213 208 208 211 212 211 213 215 218 222 221 218 223 234 235 228 220 216 219 223 229 244 259 274 290 301 307 313 324 343 352 355 15 30 34 26 17 10 14 19 15 11 4 358 356 349
216 212 209 210 211 208 209 209 203 203 204 203 200 199 200 200 201 201 201 202 205 208 207 208 211 211 210 206 205 204 205 209 209 208 211 213 214 214 216 215 210 208 210 213 214 215 214 216 221 224 222 221 231 239 232 222 215 215 222 230 238 252 268 283 293 299 303 315 337 351 8 11 15 14 8 11 7 13 16 3 358 354 351 348 343
215 211 208 210 211 209 210 210 206 204 204 202 199 198 199 200 201 201 201 202 204 206 207 210 211 210 209 206 206 206 207 212 214 215 217 216 217 217 219 218 212 210 212 215 218 218 217 217 221 225 228 226 224 227 228 224 218 213 217 229 239 250 263 275 284 288 286 284 307 25 32 23 23 9 355 4 2 356 356 348 348 348 347 343 342
213 210 209 211 212 211 211 210 208 205 203 200 197 197 199 199 201 202 202 201 203 205 206 210 212 209 207 207 208 209 210 216 220 221 220 219 220 219 220 218 213 212 214 216 218 219 219 218 221 225 231 233 225 221 222 223 223 219 218 227 241 253 263 271 275 274 267 250 213 151 102 93 79 32 1 358 349 329 340 345 344 342 340 339 343
214 211 212 213 212 212 213 213 210 208 205 201 198 198 200 202 203 203 202 201 203 204 205 209 211 210 208 208 210 211 215 221 226 226 224 223 223 221 221 218 214 213 212 213 216 220 220 220 223 225 228 233 232 228 225 224 226 232 237 239 242 249 259 264 263 258 249 233 206 178 152 141 145 142 124 111 111 73 353 344 340 334 335 340 346
217 212 212 212 212 214 215 215 214 212 207 203 202 201 203 205 206 206 205 204 205 205 205 209 212 211 211 211 213 215 218 223 227 230 228 227 225 222 221 217 215 215 212 212 217 220 221 223 227 230 230 228 229 232 232 232 231 234 237 241 244 246 252 256 251 243 235 223 208 186 168 160 162 163 151 133 121 66 350 338 330 331 337 341 344
217 214 213 214 215 215 215 215 215 215 210 205 205 205 205 207 207 209 210 208 208 207 207 209 212 213 213 214 215 217 219 221 224 229 230 230 227 222 218 216 216 217 216 218 221 222 223 226 229 234 236 231 231 234 237 237 237 237 234 235 242 243 249 255 244 231 225 216 204 189 173 168 172 173 161 155 147 331 324 325 326 334 339 337 339
217 217 217 218 217 215 214 215 216 216 213 208 207 207 206 206 205 207 210 211 210 210 209 208 210 213 214 215 217 218 219 221 224 227 230 230 227 221 217 215 216 218 219 222 225 228 230 233 236 239 241 242 243 243 243 241 239 240 239 238 239 241 253 258 236 225 223 212 198 190 181 173 177 177 167 185 253 301 309 317 330 335 333 332 336
220 221 221 221 219 216 215 215 215 216 214 211 210 209 208 207 206 207 208 209 209 211 211 209 208 212 214 215 219 220 220 222 226 228 229 230 228 222 217 214 215 216 217 221 228 233 236 238 241 244 247 251 252 250 248 244 239 239 239 241 245 251 261 255 227 219 217 209 200 192 187 180 180 181 179 203 241 276 297 308 321 325 325 329 336
222 224 223 222 219 217 216 215 215 216 215 213 213 212 210 210 211 211 211 211 210 211 212 210 211 214 215 216 220 221 220 223 226 229 230 229 227 223 218 215 216 216 218 223 231 237 240 241 243 248 251 252 252 252 250 244 239 239 240 243 246 251 257 253 237 227 217 209 204 199 196 192 187 188 194 210 229 244 272 290 300 310 318 327 333
222 221 220 220 219 217 216 216 216 216 216 216 215 215 214 213 213 214 215 215 214 215 214 212 212 215 218 220 221 221 222 224 226 229 230 229 228 224 220 218 219 222 226 231 239 242 243 243 246 252 254 255 256 255 251 245 243 243 243 245 247 250 252 253 249 242 235 223 211 206 206 201 194 195 203 214 225 232 252 273 285 297 310 320 326
219 218 219 220 219 217 216 216 216 216 217 218 218 218 217 216 215 215 216 217 218 219 218 215 214 216 219 222 222 222 223 225 227 229 229 228 229 225 223 223 223 227 233 238 243 245 247 250 253 256 258 260 260 257 250 246 247 248 249 250 251 252 251 249 246 240 239 235 223 218 215 206 199 201 209 215 221 227 243 261 275 288 301 311 318
219 219 220 220 218 216 217 217 216 216 218 219 221 221 220 219 218 217 217 217 218 219 219 218 217 218 220 221 222 223 225 227 229 230 230 229 227 226 225 226 228 232 238 242 245 248 252 257 260 263 264 262 257 252 247 246 247 249 251 253 254 254 253 251 248 242 239 238 236 233 227 216 207 207 211 212 214 223 240 256 267 279 292 302 311
217 216 217 217 217 216 217 217 216 217 218 219 222 222 222 222 221 220 219 219 218 217 217 216 217 218 220 221 222 224 227 230 230 231 233 230 228 229 228 227 230 235 241 246 249 252 254 256 260 263 265 262 251 244 244 245 247 248 250 252 255 258 260 261 257 253 250 248 248 247 236 222 212 210 213 212 214 227 243 253 260 271 284 295 305